Kalamazoo, MI

8:27 AM EDT on April 28, 2017 (GMT -0400)
Kalamazoo-Battle Creek International

Weather History for KAZO - June, 2012

Change the Weather History Date:

Thursday, June 14, 2012

  Actual Average Record
Temperature  
Mean Temperature 67 °F 68 °F  
Max Temperature 85 °F 79 °F 95 °F (1988)
Min Temperature 49 °F 57 °F 39 °F (2001)
Degree Days  
Heating Degree Days 0 1  
Month to date heating degree days 37  
Since 1 June heating degree days 37  
Since 1 July heating degree days 6405  
Cooling Degree Days 2 5  
Month to date cooling degree days 50  
Year to date cooling degree days 91  
Since 1 June cooling degree days 50  
Growing Degree Days 16 (Base 50)    
Moisture  
Dew Point 45 °F    
Average Humidity 50    
Maximum Humidity 86    
Minimum Humidity 20    
Precipitation  
Precipitation 0.00 in 0.12 in 1.24 in (1960)
Month to date precipitation 0.66 1.84  
Year to date precipitation 14.28  
Sea Level Pressure  
Sea Level Pressure 30.16 in    
Wind  
Wind Speed 4 mph (SE)    
Max Wind Speed 12 mph    
Max Gust Speed 24 mph    
Visibility 10 miles    
Events      
T = Trace of Precipitation, MM = Missing Value Source: NWS Daily Summary

Daily Weather History Graph

Daily Weather History Graph

Search for Another Location

Airport or City:

Trip Planner

Search our weather history database for the weather conditions in past years. The results will help you decide how hot, cold, wet, or windy it might be!

Date:

Astronomy

Jun. 14, 2012 Rise Set
Actual Time 6:05 AM EDT 9:20 PM EDT
Civil Twilight 5:30 AM EDT 9:54 PM EDT
Nautical Twilight 4:45 AM EDT 10:39 PM EDT
Astronomical Twilight 3:51 AM EDT 11:33 PM EDT
Moon 2:51 AM EDT (6/14) 4:59 PM EDT (6/14)
Length of Visible Light 16h 24m
Length of Day
15h 14m
Waning Crescent, 21% of the Moon is Illuminated
Jun 14
Waning Crescent
Jun 19
New
Jun 26
First Quarter
Jul 3
Full
Jul 10
Last Quarter

Hourly Weather History & Observations

Time (EDT) Temp. Dew Point Humidity Pressure Visibility Wind Dir Wind Speed Gust Speed Precip Events Conditions
12:53 AM 57.0 °F 46.0 °F 67% 30.14 in 10.0 mi Calm Calm - N/A   Clear
1:53 AM 55.0 °F 46.0 °F 72% 30.15 in 10.0 mi Calm Calm - N/A   Clear
2:53 AM 54.0 °F 46.9 °F 77% 30.16 in 10.0 mi Calm Calm - N/A   Clear
3:53 AM 53.1 °F 46.9 °F 80% 30.17 in 10.0 mi Calm Calm - N/A   Clear
4:53 AM 52.0 °F 46.9 °F 83% 30.18 in 10.0 mi Calm Calm - N/A   Clear
5:53 AM 51.1 °F 46.9 °F 86% 30.19 in 10.0 mi Calm Calm - N/A   Clear
6:53 AM 51.1 °F 46.9 °F 86% 30.21 in 10.0 mi Calm Calm - N/A   Clear
7:53 AM 57.0 °F 48.0 °F 72% 30.22 in 10.0 mi SE 3.5 mph - N/A   Clear
8:53 AM 62.1 °F 50.0 °F 65% 30.22 in 10.0 mi SE 5.8 mph - N/A   Clear
9:53 AM 66.9 °F 51.1 °F 57% 30.21 in 10.0 mi Variable 4.6 mph - N/A   Clear
10:53 AM 69.1 °F 48.0 °F 47% 30.21 in 10.0 mi Variable 3.5 mph - N/A   Clear
11:53 AM 72.0 °F 48.0 °F 43% 30.19 in 10.0 mi Variable 5.8 mph - N/A   Clear
12:53 PM 75.9 °F 45.0 °F 33% 30.17 in 10.0 mi SSE 6.9 mph - N/A   Clear
1:53 PM 79.0 °F 39.9 °F 25% 30.16 in 10.0 mi SE 6.9 mph - N/A   Clear
2:53 PM 80.1 °F 39.0 °F 23% 30.15 in 10.0 mi Variable 6.9 mph - N/A   Clear
3:53 PM 82.4 °F 37.4 °F 20% 30.15 in 10.0 mi ESE 8.1 mph - N/A   Clear
4:53 PM 82.9 °F 37.9 °F 20% 30.14 in 10.0 mi Variable 5.8 mph - N/A   Clear
5:53 PM 82.9 °F 39.9 °F 22% 30.12 in 10.0 mi South 8.1 mph - N/A   Clear
6:53 PM 81.0 °F 39.9 °F 23% 30.11 in 10.0 mi South 5.8 mph - N/A   Clear
7:53 PM 79.0 °F 44.1 °F 29% 30.10 in 10.0 mi Calm Calm - N/A   Clear
8:53 PM 77.0 °F 46.0 °F 33% 30.10 in 10.0 mi Calm Calm - N/A   Clear
9:53 PM 73.0 °F 46.9 °F 39% 30.09 in 10.0 mi SE 5.8 mph - N/A   Clear
10:53 PM 71.1 °F 46.0 °F 41% 30.11 in 10.0 mi ESE 5.8 mph - N/A   Clear
11:53 PM 68.0 °F 46.9 °F 47% 30.10 in 10.0 mi Variable 3.5 mph - N/A   Clear